Baton Rouge, LA

3:46 PM CDT on September 18, 2019 (GMT -0500)
Baton Rouge Metro-Ryan

Weather History for KBTR - August, 2019

Change the Weather History Date:

Monday, August 19, 2019

  Actual Average Record
Temperature  
Mean Temperature 84 °F 83 °F  
Max Temperature 91 °F 93 °F 110 °F (1909)
Min Temperature 77 °F 74 °F 65 °F (1943)
Degree Days  
Heating Degree Days 0 0  
Month to date heating degree days 0 0  
Since 1 June heating degree days 0 0  
Since 1 July heating degree days 0 0  
Cooling Degree Days 19 18  
Month to date cooling degree days 389 342  
Year to date cooling degree days 2123 1947  
Since 1 June cooling degree days 1452 1382  
Growing Degree Days 34 (Base 50)    
Moisture  
Dew Point 75 °F    
Average Humidity 79    
Maximum Humidity 94    
Minimum Humidity 64    
Precipitation  
Precipitation 0.17 in 0.20 in 2.50 in (1897)
Month to date precipitation 2.74 3.67  
Year to date precipitation 44.16 39.56  
Snow  
Snow 0.00 in - - ()
Month to date snowfall 0.0  
Since 1 June snowfall 0.0  
Since 1 July snowfall 0.0  
Snow Depth 0.00 in    
Sea Level Pressure  
Sea Level Pressure 30.02 in    
Wind  
Wind Speed 6 mph (ESE)    
Max Wind Speed 16 mph    
Max Gust Speed 23 mph    
Visibility 9 miles    
Events Rain , Thunderstorm    
T = Trace of Precipitation, MM = Missing Value Source: NWS Daily Summary

Daily Weather History Graph

Daily Weather History Graph

Search for Another Location

Airport or City:

Astronomy

Aug. 19, 2019 Rise Set
Actual Time 6:33 AM CDT 7:42 PM CDT
Civil Twilight 6:08 AM CDT 8:07 PM CDT
Nautical Twilight 5:38 AM CDT 8:37 PM CDT
Astronomical Twilight 5:07 AM CDT 9:07 PM CDT
Moon 10:19 PM CDT (8/19) 10:01 AM CDT (8/19)
Length of Visible Light 13h 59m
Length of Day
13h 08m
Waning Gibbous, 85% of the Moon is Illuminated
Aug 19
Waning Gibbous
Aug 23
Last Quarter
Aug 30
New
Sep 5
First Quarter
Sep 13
Full

Hourly Weather History & Observations

Time (CDT) Temp. Heat Index Dew Point Humidity Pressure Visibility Wind Dir Wind Speed Gust Speed Precip Events Conditions
12:53 AM 78.1 °F - 75.0 °F 90% 29.99 in 10.0 mi NE 5.8 mph - N/A   Clear
1:53 AM 79.0 °F - 75.9 °F 90% 29.99 in 10.0 mi Calm Calm - N/A   Partly Cloudy
2:53 AM 79.0 °F - 73.9 °F 84% 29.98 in 10.0 mi SSE 3.5 mph - N/A   Clear
3:53 AM 78.1 °F - 73.9 °F 87% 29.98 in 10.0 mi Calm Calm - N/A   Clear
4:53 AM 78.1 °F - 73.9 °F 87% 29.99 in 10.0 mi Calm Calm - N/A   Clear
5:53 AM 77.0 °F - 73.9 °F 90% 29.99 in 10.0 mi Calm Calm - N/A   Clear
6:53 AM 77.0 °F - 73.9 °F 90% 30.01 in 10.0 mi NE 3.5 mph - N/A   Clear
7:53 AM 80.1 °F 85.1 °F 75.0 °F 85% 30.03 in 10.0 mi Calm Calm - N/A   Clear
8:53 AM 84.9 °F 95.3 °F 77.0 °F 77% 30.03 in 10.0 mi Calm Calm - N/A   Clear
9:53 AM 86.0 °F 96.9 °F 77.0 °F 74% 30.04 in 10.0 mi Variable 4.6 mph - N/A   Mostly Cloudy
10:53 AM 90.0 °F 101.3 °F 75.9 °F 63% 30.03 in 10.0 mi West 5.8 mph - N/A   Mostly Cloudy
11:53 AM 90.0 °F 100.2 °F 75.0 °F 61% 30.01 in 10.0 mi NE 9.2 mph - 0.01 in Thunderstorm Mostly Cloudy
12:00 PM 88.0 °F 98.5 °F 75.9 °F 67% 30.02 in 10.0 mi ENE 10.4 mph - N/A Thunderstorm Scattered Clouds
12:12 PM 86.0 °F 96.0 °F 75.9 °F 72% 30.02 in 10.0 mi East 9.2 mph - N/A   Scattered Clouds
12:48 PM 80.6 °F 85.4 °F 73.4 °F 79% 30.02 in 5.0 mi South 12.7 mph - 0.00 in Rain , Thunderstorm Light Thunderstorms and Rain
12:53 PM 79.0 °F - 73.9 °F 84% 30.02 in 5.0 mi South 9.2 mph - 0.00 in Rain , Thunderstorm Light Thunderstorms and Rain
1:18 PM 80.1 °F 85.1 °F 75.0 °F 85% 30.02 in 10.0 mi SE 3.5 mph - 0.00 in Thunderstorm Mostly Cloudy
1:24 PM 79.0 °F - 73.9 °F 84% 30.02 in 6.0 mi SSE 11.5 mph - 0.00 in Rain Heavy Rain
1:33 PM 79.0 °F - 73.9 °F 84% 30.03 in 6.0 mi SW 10.4 mph - 0.11 in Rain , Thunderstorm Rain
1:53 PM 81.0 °F 86.7 °F 75.0 °F 82% 30.04 in 10.0 mi SW 12.7 mph - 0.11 in Thunderstorm Scattered Clouds
2:53 PM 79.0 °F - 73.9 °F 84% 30.00 in 10.0 mi South 11.5 mph - N/A Thunderstorm Clear
3:53 PM 80.1 °F 84.5 °F 73.9 °F 81% 30.01 in 10.0 mi SW 5.8 mph - N/A Thunderstorm Clear
4:53 PM 81.0 °F 86.2 °F 73.9 °F 79% 30.01 in 10.0 mi SSE 8.1 mph - N/A Thunderstorm Clear
5:01 PM 81.0 °F 86.2 °F 73.9 °F 79% 30.01 in 10.0 mi South 10.4 mph - N/A   Clear
5:53 PM 82.9 °F 89.4 °F 73.9 °F 74% 30.02 in 10.0 mi ESE 9.2 mph - N/A   Mostly Cloudy
6:53 PM 81.0 °F 85.8 °F 73.0 °F 77% 30.04 in 10.0 mi NNE 8.1 mph - N/A   Mostly Cloudy
7:03 PM 80.1 °F 84.5 °F 73.9 °F 81% 30.04 in 10.0 mi North 3.5 mph - 0.00 in Rain , Thunderstorm Light Rain
7:19 PM 79.0 °F - 73.9 °F 84% 30.03 in 10.0 mi WSW 4.6 mph - 0.00 in Rain , Thunderstorm Light Rain
8:43 PM 78.1 °F - 75.9 °F 93% 30.01 in 8.0 mi NNE 8.1 mph - 0.04 in Rain Light Rain
8:53 PM 78.1 °F - 75.9 °F 93% 30.01 in 7.0 mi ENE 9.2 mph - 0.04 in Rain Light Rain
9:53 PM 77.0 °F - 75.0 °F 94% 30.02 in 6.0 mi NE 3.5 mph - 0.00 in   Clear
10:53 PM 77.0 °F - 75.0 °F 94% 30.03 in 5.0 mi East 8.1 mph - N/A   Clear
11:05 PM 77.0 °F - 75.0 °F 94% 30.03 in 6.0 mi ESE 5.8 mph - N/A   Scattered Clouds
11:53 PM 77.0 °F - 75.0 °F 94% 30.02 in 6.0 mi ENE 9.2 mph - N/A   Scattered Clouds